Home > Weather > Silverstone > Past weeks

Flag for United Kingdom Past Weather in Silverstone, England, United Kingdom — Yesterday and Last 2 Weeks

Now
60 °F

Cool.


Feels Like: 60 °F
Forecast: 52 / 69 °F
Wind: 3 mph from Southeast

Location: Church Lawford

Current Time: Aug 28, 2016 at 3:30:11 AM

Latest Report: Aug 28, 2016 at 2:00 AM


Visibility: 11 mi

Pressure: 29.84 "Hg

Humidity: 94%

Dew Point: 58 °F

Location of SilverstoneLocation

Past Weather in Silverstone — Graph

°F

Silverstone Temperature Yesterday

Maximum temperature yesterday: 71 °F (at 2:00 PM)
Minimum temperature yesterday: 49 °F (at 3:00 AM)
Average temperature yesterday: 60 °F

High & Low Weather Summary for the Past Weeks

 TemperatureHumidityPressure
High83 °F (Aug 23, 4:00 PM)100% (Aug 17, 7:00 AM)30.32 "Hg (Aug 17, 7:00 AM)
Low47 °F (Aug 15, 6:00 AM)39% (Aug 17, 5:00 PM)29.58 "Hg (Aug 20, 7:00 AM)
Average64 °F78%30.02 "Hg
* Reported Aug 13 1:00 AM — Aug 28 1:00 AM, Silverstone, Weather by CustomWeather, © 2016

Note: Actual official high and low records may vary slightly from our data, if they occured in-between our weather recording intervals... More about our weather records

Advertising

Silverstone Weather History for the Previous 24 Hours

Scroll right to see more
 ConditionsComfort  
Time TempWeatherWind HumidityBarometerVisibility
1:00 AM
Sun, Aug 28
60 °FCool.2 mph94%29.86 "Hg11 mi
12:00 AM60 °FCool.8 mph92%29.88 "Hg12 mi
11:00 PM
Sat, Aug 27
60 °FCool.7 mph92%29.89 "Hg8 mi
10:00 PM61 °FCool.6 mph92%29.90 "Hg12 mi
9:00 PM61 °FCool.5 mph91%29.91 "Hg19 mi
8:00 PM62 °FCool.7 mph88%29.91 "Hg22 mi
7:00 PM62 °FMild.9 mph85%29.91 "Hg25 mi
6:00 PM62 °FCool.8 mph90%29.93 "Hg28 mi
5:00 PM61 °FRain. Cloudy.12 mph96%29.94 "Hg14 mi
4:00 PM61 °FRain. Cloudy.6 mph90%30.00 "Hg1 mi
3:00 PM63 °FRain. Cloudy.7 mph88%29.97 "Hg6 mi
2:00 PM71 °FMild.9 mph63%29.98 "Hg31 mi
1:00 PM71 °FMild.9 mph65%30.01 "Hg18 mi
12:00 PM69 °FMild.7 mph68%30.04 "Hg22 mi
11:00 AM66 °FMild.8 mph70%30.06 "Hg19 mi
10:00 AM62 °FCool.5 mph87%30.09 "Hg10 mi
9:00 AM60 °FCool.3 mph87%30.10 "Hg13 mi
8:00 AM54 °FCool.3 mph91%30.10 "Hg25 mi
7:00 AM51 °FCool.3 mph97%30.11 "Hg25 mi
6:00 AM50 °FCool.3 mph99%30.11 "Hg19 mi
3:00 AM49 °FCool.1 mph97%30.14 "Hg10 mi
Weather by CustomWeather, © 2016

See weather overviewHow to use our weather pages